STARLINK-32831, 62860

Orbit data source: Space-Track

STARLINK-32831, 62860 is a payload satellite owned by SpaceX/Seattle (US) in LEO that was launched on Sat, 01 Feb 2025 UTC via an FALCON 9 launch vehicle from the Air Force Western Test Range (AFWTR). Payload-class satellites include a variety of spacecraft equipped with specific instruments for various scientific and technological missions. These include communications satellites like Starlink; space stations such as the ISS; scientific satellites like the Hubble; Earth observation satellites from companies like Planet Labs, Umbra, and HawkEye 360; GPS; miniature CubeSats for education and research; and military/defense satellites.

Loading next visibility...
Identifier
62860, 2025-022G
Orbit
LEO
Country
Flag of USUS
Related business
Manufacturer
SpaceX/Seattle
Mission
Operational Commercial Communications
Bus & Motor
STARLINK V2M, Unknown motor
Mass
730 kg wet, ~700 kg dry
Launch date (UTC)
2025-02-01 (11 months ago)
Launch vehicle
FALCON 9
Launch site
Air Force Western Test Range (AFWTR)
Object type
Payload
Rocket body
Debris
Shape & HBR
Box + 2 Pan, 17.7 m
Radar Cross Section
33.884 m², Large (>1 m²)

Expand to show TLE details & history
Last TLE update: 1 day ago

TLE from 1 day ago
0 STARLINK-32831
1 62860U 25022G   25351.73827538  .00017905  00000-0  61557-3 0  9991
2 62860  53.1570 150.2267 0000957  77.3828 282.7279 15.30179542 49348
Epoch: 2025-12-17T17:43Z
TLE epoch observation values (Epoch: 2025-12-17T17:43:06.992Z)
Latitude
-0.00009°
Longitude
157.84367°
Altitude
476.031 km
Speed
7.629 km/s
True Right ascension
10h 00m 54s
True Declination
0° 00' 00"
Sunlit
Object was in full shadow at epoch
Visualization orbit readout
Latitude
Unknown
Longitude
Unknown
Altitude
Unknown
Speed
Unknown
Apparent Right ascension
Unknown
Apparent Declination
Unknown
Sunlit
N/A
Visualization observer readout
Local Sidereal Time
16:07:43
Azimuth
Unknown
Elevation
Unknown
Doppler factor
Unknown
Orbital elements
Apogee altitude
476.189 km
Perigee altitude
474.877 km
Semi-major axis
6,853.67 km
Eccentricity
0.0001
Inclination
53.157°
RAAN
150.2267°
Arg. of periapsis
77.3828°
True anomaly
282.7172°
Mean anomaly
282.7279°
Eccentric anomaly
282.72255°
Mean motion
3.82524 °/min
Orbital period
94.11 mins
BSTAR
0.00061557
Loading maneuver chart data...
Computing Atmospheric mass density...
Loading historical data...
Loading historical data...
Loading historical data...
Loading historical data...
Loading historical data...
Loading historical data...
Loading historical data...

Documentation

Showing up to 5 results
|